Change the Weather History Date:

Sunday, August 17, 2014

  Actual Average Record
Temperature  
Mean Temperature 68 °F 68 °F  
Max Temperature 85 °F 85 °F 99 °F (1967)
Min Temperature 50 °F 50 °F 38 °F (2002)
Degree Days  
Heating Degree Days 0 1  
Month to date heating degree days 2 17  
Since 1 June heating degree days 185 215  
Since 1 July heating degree days 8 55  
Cooling Degree Days 3 4  
Month to date cooling degree days 115 87  
Year to date cooling degree days 355 281  
Since 1 June cooling degree days 355 275  
Growing Degree Days 17 (Base 50)    
Moisture  
Dew Point 50 °F    
Average Humidity 58    
Maximum Humidity 89    
Minimum Humidity 27    
Precipitation  
Precipitation 0.00 in 0.04 in 0.53 in (1930)
Month to date precipitation 0.47 0.61  
Year to date precipitation 9.55 9.45  
Snow  
Snow 0.00 in - - ()
Month to date snowfall 0.0  
Year to date snowfall 51.9  
Since 1 July snowfall 0.0  
Snow Depth 0.00 in    
Sea Level Pressure  
Sea Level Pressure 30.07 in    
Wind  
Wind Speed 4 mph (NW)    
Max Wind Speed 15 mph    
Max Gust Speed 19 mph    
Visibility 10 miles    
Events      
T = Trace of Precipitation, MM = Missing Value Source: NWS Daily Summary

Daily Weather History Graph

Daily Weather History Graph

Search for Another Location

Airport or City:

Trip Planner

Search our weather history database for the weather conditions in past years. The results will help you decide how hot, cold, wet, or windy it might be!

Date:

Astronomy

Aug. 17, 2014 Rise Set
Actual Time 6:36 AM MDT 8:43 PM MDT
Civil Twilight 6:03 AM MDT 9:16 PM MDT
Nautical Twilight 5:22 AM MDT 9:57 PM MDT
Astronomical Twilight 4:36 AM MDT 10:42 PM MDT
Moon 12:02 AM MDT (8/17) 2:56 PM MDT (8/17)
Length of Visible Light 15h 12m
Length of Day
14h 06m
Waning Gibbous, 48% of the Moon is Illuminated
Aug 17
Waning Gibbous
Aug 25
New
Sep 2
First Quarter
Sep 8
Full
Sep 15
Last Quarter

Hourly Weather History & Observations

Time (MDT) Temp. Dew Point Humidity Pressure Visibility Wind Dir Wind Speed Gust Speed Precip Events Conditions
12:53 AM 59.0 °F 51.8 °F 77% 30.11 in 10.0 mi Calm Calm - N/A   Clear
1:53 AM 55.0 °F 51.1 °F 86% 30.09 in 10.0 mi Calm Calm - N/A   Clear
2:53 AM 55.0 °F 51.1 °F 86% 30.09 in 10.0 mi Calm Calm - N/A   Clear
3:53 AM 53.1 °F 50.0 °F 89% 30.09 in 10.0 mi West 3.5 mph - N/A   Clear
4:53 AM 53.1 °F 50.0 °F 89% 30.10 in 10.0 mi Calm Calm - N/A   Clear
5:53 AM 51.1 °F 48.9 °F 92% 30.11 in 10.0 mi North 3.5 mph - N/A   Clear
6:53 AM 51.1 °F 48.9 °F 92% 30.12 in 10.0 mi Calm Calm - N/A   Clear
7:53 AM 55.0 °F 51.1 °F 86% 30.13 in 10.0 mi Calm Calm - N/A   Clear
8:53 AM 55.9 °F 52.0 °F 87% 30.14 in 10.0 mi WNW 3.5 mph - N/A   Clear
9:53 AM 62.1 °F 53.1 °F 72% 30.14 in 10.0 mi Calm Calm - N/A   Clear
10:53 AM 66.0 °F 53.1 °F 63% 30.13 in 10.0 mi Calm Calm - N/A   Clear
11:53 AM 71.1 °F 53.1 °F 53% 30.11 in 10.0 mi SSE 4.6 mph - N/A   Clear
12:53 PM 77.0 °F 51.1 °F 40% 30.08 in 10.0 mi Calm Calm - N/A   Clear
1:53 PM 78.1 °F 50.0 °F 37% 30.07 in 10.0 mi SSW 3.5 mph - N/A   Clear
2:53 PM 82.0 °F 51.1 °F 34% 30.05 in 10.0 mi Variable 4.6 mph - N/A   Partly Cloudy
3:53 PM 80.6 °F 50.0 °F 34% 30.09 in 10.0 mi WSW 6.9 mph - N/A   Partly Cloudy
4:53 PM 82.9 °F 48.0 °F 29% 30.02 in 10.0 mi Variable 3.5 mph - N/A   Scattered Clouds
5:53 PM 84.0 °F 46.9 °F 27% 30.01 in 10.0 mi WNW 9.2 mph - N/A   Partly Cloudy
6:53 PM 82.9 °F 48.9 °F 31% 30.00 in 10.0 mi North 13.8 mph - N/A   Scattered Clouds
7:53 PM 80.1 °F 48.9 °F 34% 30.00 in 10.0 mi North 12.7 mph - N/A   Clear
8:53 PM 73.9 °F 50.0 °F 43% 30.02 in 10.0 mi NNW 6.9 mph - N/A   Clear
9:53 PM 71.1 °F 51.1 °F 49% 30.04 in 10.0 mi West 9.2 mph - N/A   Clear
10:53 PM 69.1 °F 51.1 °F 53% 30.04 in 10.0 mi WNW 3.5 mph - N/A   Mostly Cloudy
11:53 PM 66.9 °F 51.1 °F 57% 30.04 in 10.0 mi NE 3.5 mph - N/A   Clear